"SCLK","SCET","ORBIT_NUMBER","ALTITUDE","LATITUDE_PLANEOGRAPHIC","LATITUDE_PLANETOCENTRIC","LOCAL_TRUE_SOLAR_TIME","WEST_LONGITUDE","X_SUN_DIR_DISTANCE","RHO_PRP_SUN_DISTANCE","SOLAR_ZENITH_ANGLE","ELECTRON_PLASMA_FREQUENCY","FPE_QUALITY","FPP_VERIFICATION","ELECTRON_PLASMA_DENSITY","ELECTRON_CYCLOTRON_PERIOD","FCP_QUALITY","B_MAGNITUDE"
"1/0362727642.02449",2014-10-30T05:40:45.859,13745,1572.00,59.11,58.88,"05:26:52",114.66,-0.760,1.240,121.54,8.10e+01,2,,8.14e+01,,,
"1/0362727649.38101",2014-10-30T05:40:53.403,13745,1561.00,59.39,59.16,"05:31:34",114.64,-0.760,1.240,121.41,8.40e+01,2,,8.75e+01,,,
"1/0362727657.08151",2014-10-30T05:41:00.946,13745,1550.00,59.67,59.44,"05:38:34",114.61,-0.760,1.240,121.29,8.40e+01,2,,8.75e+01,,,
"1/0362727664.43737",2014-10-30T05:41:08.489,13745,1539.00,59.95,59.72,"05:45:34",114.58,-0.750,1.240,121.16,9.10e+01,2,,1.03e+02,,,
"1/0362727672.13787",2014-10-30T05:41:16.032,13745,1529.00,60.24,60.00,"05:52:34",114.55,-0.750,1.240,121.03,8.90e+01,2,,9.82e+01,,,
"1/0362727679.49373",2014-10-30T05:41:23.575,13745,1518.00,60.52,60.29,"05:59:34",114.52,-0.740,1.240,120.90,5.32e+01,2,,3.51e+01,,,
"1/0362727687.19489",2014-10-30T05:41:31.119,13745,1507.00,60.80,60.57,"06:08:51",114.48,-0.740,1.230,120.77,5.37e+01,2,,3.57e+01,,,
"1/0362727694.55075",2014-10-30T05:41:38.662,13745,1496.00,61.09,60.86,"06:15:51",114.45,-0.730,1.230,120.63,8.18e+01,2,,8.29e+01,,,
"1/0362727702.25125",2014-10-30T05:41:46.205,13745,1486.00,61.38,61.15,"06:25:08",114.41,-0.730,1.230,120.50,9.70e+01,2,,1.17e+02,,,
"1/0362727709.60711",2014-10-30T05:41:53.748,13745,1475.00,61.67,61.44,"06:34:26",114.37,-0.720,1.230,120.36,1.01e+02,2,,1.26e+02,,,
"1/0362727717.30761",2014-10-30T05:42:01.291,13745,1464.00,61.96,61.73,"06:41:26",114.34,-0.720,1.230,120.23,1.00e+02,2,,1.24e+02,,,
"1/0362727725.00876",2014-10-30T05:42:08.835,13745,1454.00,62.25,62.02,"06:53:01",114.29,-0.720,1.230,120.09,1.06e+02,2,,1.39e+02,,,
"1/0362727732.36462",2014-10-30T05:42:16.378,13745,1443.00,62.54,62.31,"07:02:18",114.25,-0.710,1.230,119.95,1.14e+02,2,,1.61e+02,,,
"1/0362727740.06512",2014-10-30T05:42:23.921,13745,1432.00,62.83,62.61,"07:11:35",114.21,-0.710,1.230,119.81,1.09e+02,2,,1.47e+02,,,
"1/0362727747.42098",2014-10-30T05:42:31.464,13745,1422.00,63.13,62.90,"07:23:10",114.16,-0.700,1.230,119.67,1.01e+02,2,,1.26e+02,,,
"1/0362727755.12148",2014-10-30T05:42:39.007,13745,1411.00,63.42,63.20,"07:34:45",114.11,-0.700,1.230,119.52,1.15e+02,2,,1.64e+02,,,
"1/0362727762.47800",2014-10-30T05:42:46.551,13745,1401.00,63.72,63.50,"07:46:20",114.06,-0.690,1.230,119.38,1.17e+02,2,,1.70e+02,,,
"1/0362727770.17850",2014-10-30T05:42:54.094,13745,1390.00,64.02,63.80,"07:57:55",114.01,-0.690,1.220,119.23,1.19e+02,2,,1.76e+02,,,
"1/0362727777.53436",2014-10-30T05:43:01.637,13745,1380.00,64.32,64.10,"08:09:30",113.96,-0.680,1.220,119.08,1.19e+02,2,,1.76e+02,,,
"1/0362727785.23486",2014-10-30T05:43:09.180,13745,1369.00,64.62,64.40,"08:23:22",113.90,-0.680,1.220,118.94,1.17e+02,2,,1.70e+02,,,
"1/0362727792.59072",2014-10-30T05:43:16.723,13745,1359.00,64.92,64.70,"08:37:15",113.84,-0.670,1.220,118.79,1.16e+02,2,,1.67e+02,,,
"1/0362727800.29188",2014-10-30T05:43:24.267,13745,1348.00,65.22,65.01,"08:51:07",113.78,-0.670,1.220,118.63,1.12e+02,2,,1.56e+02,,,
"1/0362727807.64774",2014-10-30T05:43:31.810,13745,1338.00,65.53,65.31,"09:04:59",113.72,-0.660,1.220,118.48,1.16e+02,2,,1.67e+02,,,
"1/0362727815.34824",2014-10-30T05:43:39.353,13745,1328.00,65.83,65.62,"09:21:09",113.65,-0.660,1.220,118.33,1.13e+02,2,,1.58e+02,,,
"1/0362727823.04874",2014-10-30T05:43:46.896,13745,1317.00,66.14,65.93,"09:37:19",113.58,-0.650,1.220,118.17,1.11e+02,2,,1.53e+02,,,
"1/0362727830.40460",2014-10-30T05:43:54.439,13745,1307.00,66.45,66.24,"09:53:29",113.51,-0.650,1.220,118.02,1.14e+02,2,,1.61e+02,,,
"1/0362727838.10575",2014-10-30T05:44:01.983,13745,1297.00,66.76,66.55,"10:11:57",113.43,-0.640,1.220,117.86,1.17e+02,2,,1.70e+02,,,
"1/0362727845.46161",2014-10-30T05:44:09.526,13745,1287.00,67.07,66.86,"10:30:24",113.35,-0.640,1.210,117.70,1.19e+02,2,,1.76e+02,,,
"1/0362727853.16211",2014-10-30T05:44:17.069,13745,1276.00,67.38,67.18,"10:48:51",113.27,-0.640,1.210,117.54,1.18e+02,2,,1.73e+02,,,
"1/0362727860.51797",2014-10-30T05:44:24.612,13745,1266.00,67.70,67.49,"11:07:19",113.19,-0.630,1.210,117.38,1.17e+02,2,,1.70e+02,,,
"1/0362727868.21847",2014-10-30T05:44:32.155,13745,1256.00,68.01,67.81,"11:28:04",113.10,-0.630,1.210,117.21,1.20e+02,2,,1.79e+02,,,
"1/0362727875.57499",2014-10-30T05:44:39.699,13745,1246.00,68.33,68.13,"11:48:49",113.01,-0.620,1.210,117.05,1.21e+02,2,,1.82e+02,,,
"1/0362727883.27549",2014-10-30T05:44:47.242,13745,1236.00,68.64,68.45,"12:11:51",112.91,-0.620,1.210,116.88,1.21e+02,2,,1.82e+02,,,
"1/0362727890.63135",2014-10-30T05:44:54.785,13745,1226.00,68.96,68.77,"12:34:54",112.81,-0.610,1.210,116.71,1.24e+02,2,,1.91e+02,,,
"1/0362727898.33185",2014-10-30T05:45:02.328,13745,1216.00,69.28,69.09,"13:00:13",112.70,-0.610,1.210,116.54,1.22e+02,2,,1.85e+02,,,
"1/0362727906.03235",2014-10-30T05:45:09.871,13745,1206.00,69.60,69.41,"13:25:33",112.59,-0.600,1.210,116.37,1.19e+02,2,,1.76e+02,,,
"1/0362727913.38887",2014-10-30T05:45:17.415,13745,1196.00,69.92,69.74,"13:50:53",112.48,-0.600,1.210,116.20,9.17e+01,2,,1.04e+02,,,
"1/0362727921.08937",2014-10-30T05:45:24.958,13745,1186.00,70.25,70.06,"14:18:31",112.36,-0.590,1.210,116.03,7.24e+01,2,,6.50e+01,,,
"1/0362727928.44523",2014-10-30T05:45:32.501,13745,1176.00,70.57,70.39,"14:48:26",112.23,-0.590,1.210,115.85,7.50e+01,2,,6.98e+01,,,
"1/0362727936.14573",2014-10-30T05:45:40.044,13745,1166.00,70.90,70.72,"15:18:21",112.10,-0.580,1.200,115.68,1.14e+02,2,,1.61e+02,,,
"1/0362727943.50159",2014-10-30T05:45:47.587,13745,1157.00,71.23,71.05,"15:50:33",111.96,-0.580,1.200,115.50,1.16e+02,2,,1.67e+02,,,
"1/0362727951.20274",2014-10-30T05:45:55.131,13745,1147.00,71.55,71.38,"16:22:46",111.82,-0.570,1.200,115.32,1.11e+02,2,,1.53e+02,,,
"1/0362727958.55860",2014-10-30T05:46:02.674,13745,1137.00,71.88,71.71,"16:57:16",111.67,-0.570,1.200,115.14,1.07e+02,2,,1.42e+02,,,
"1/0362727966.25910",2014-10-30T05:46:10.217,13745,1127.00,72.21,72.04,"17:34:03",111.51,-0.560,1.200,114.96,1.10e+02,2,,1.50e+02,,,
"1/0362727973.61496",2014-10-30T05:46:17.760,13745,1118.00,72.55,72.38,"18:13:08",111.34,-0.560,1.200,114.78,1.01e+02,2,,1.26e+02,,,
"1/0362727981.31546",2014-10-30T05:46:25.303,13745,1108.00,72.88,72.71,"18:52:13",111.17,-0.550,1.200,114.59,1.08e+02,2,,1.43e+02,,,
"1/0362727981.31612",2014-10-30T05:46:25.304,13745,1108.00,72.88,72.71,"18:52:13",111.17,-0.550,1.200,114.59,1.07e+02,2,,1.42e+02,,,
"1/0362727989.01662",2014-10-30T05:46:32.847,13745,1098.00,73.21,73.05,"19:33:36",110.99,-0.550,1.200,114.41,1.07e+02,2,,1.42e+02,,,
"1/0362727996.37248",2014-10-30T05:46:40.390,13745,1089.00,73.55,73.39,"20:19:33",110.79,-0.540,1.200,114.22,1.09e+02,2,,1.47e+02,,,
"1/0362728004.07298",2014-10-30T05:46:47.933,13745,1079.00,73.89,73.73,"21:05:31",110.59,-0.540,1.200,114.03,1.05e+02,2,,1.37e+02,,,
"1/0362728011.42884",2014-10-30T05:46:55.476,13745,1070.00,74.22,74.07,"21:53:46",110.38,-0.530,1.200,113.84,1.17e+02,2,,1.70e+02,,,
"1/0362728019.12999",2014-10-30T05:47:03.020,13745,1061.00,74.56,74.41,"22:46:36",110.15,-0.530,1.200,113.65,1.19e+02,2,,1.76e+02,,,
"1/0362728026.48585",2014-10-30T05:47:10.563,13745,1051.00,74.90,74.75,"23:39:26",109.92,-0.520,1.190,113.46,1.17e+02,2,,1.70e+02,,,
"1/0362728034.18636",2014-10-30T05:47:18.106,13745,1042.00,75.24,75.09,"00:36:51",109.67,-0.510,1.190,113.26,1.17e+02,2,,1.70e+02,,,
"1/0362728041.54222",2014-10-30T05:47:25.649,13745,1032.00,75.59,75.44,"01:38:51",109.40,-0.510,1.190,113.07,1.09e+02,2,,1.47e+02,,,
"1/0362728049.24272",2014-10-30T05:47:33.192,13745,1023.00,75.93,75.79,"02:43:09",109.12,-0.500,1.190,112.87,1.17e+02,2,,1.70e+02,,,
"1/0362728056.59923",2014-10-30T05:47:40.736,13745,1014.00,76.27,76.13,"03:52:01",108.82,-0.500,1.190,112.67,1.16e+02,2,,1.67e+02,,,
"1/0362728064.29973",2014-10-30T05:47:48.279,13745,1005.00,76.62,76.48,"05:03:12",108.51,-0.490,1.190,112.47,1.02e+02,2,,1.29e+02,,,
"1/0362728072.00023",2014-10-30T05:47:55.822,13745,996.00,76.97,76.83,"06:18:57",108.18,-0.490,1.190,112.27,1.08e+02,2,,1.45e+02,,,
"1/0362728079.35609",2014-10-30T05:48:03.365,13745,987.00,77.31,77.18,"07:41:34",107.82,-0.480,1.190,112.06,1.18e+02,2,,1.73e+02,,,
"1/0362728087.05659",2014-10-30T05:48:10.908,13745,978.00,77.66,77.53,"09:08:47",107.44,-0.480,1.190,111.86,1.15e+02,2,,1.64e+02,,,
"1/0362728094.41311",2014-10-30T05:48:18.452,13745,969.00,78.01,77.88,"10:40:35",107.04,-0.470,1.190,111.65,1.14e+02,2,,1.61e+02,,,
"1/0362728102.11361",2014-10-30T05:48:25.995,13745,960.00,78.36,78.24,"12:19:15",106.61,-0.470,1.190,111.45,1.17e+02,2,,1.70e+02,,,
"1/0362728109.46947",2014-10-30T05:48:33.538,13745,951.00,78.71,78.59,"14:04:48",106.15,-0.460,1.190,111.24,1.13e+02,2,,1.58e+02,,,
"1/0362728117.16997",2014-10-30T05:48:41.081,13745,942.00,79.06,78.94,"15:59:31",105.65,-0.460,1.190,111.03,1.21e+02,2,,1.82e+02,,,
"1/0362728124.52583",2014-10-30T05:48:48.624,13745,933.00,79.41,79.30,"18:01:06",105.12,-0.450,1.190,110.82,1.15e+02,2,,1.64e+02,,,
"1/0362728132.22698",2014-10-30T05:48:56.168,13745,924.00,79.76,79.65,"20:11:52",104.55,-0.450,1.180,110.60,1.32e+02,2,,2.16e+02,,,
"1/0362728139.58284",2014-10-30T05:49:03.711,13745,915.00,80.11,80.01,"22:31:47",103.94,-0.440,1.180,110.39,1.31e+02,2,,2.13e+02,,,
"1/0362728147.28334",2014-10-30T05:49:11.254,13745,907.00,80.47,80.36,"01:05:28",103.27,-0.440,1.180,110.17,1.39e+02,2,,2.40e+02,,,
"1/0362728154.63921",2014-10-30T05:49:18.797,13745,898.00,80.82,80.72,"03:50:36",102.55,-0.430,1.180,109.95,1.40e+02,2,,2.43e+02,,,
"1/0362728162.33971",2014-10-30T05:49:26.340,13745,890.00,81.17,81.07,"06:51:46",101.76,-0.420,1.180,109.73,1.43e+02,2,,2.54e+02,,,
"1/0362728170.04086",2014-10-30T05:49:33.884,13745,881.00,81.52,81.43,"10:06:42",100.91,-0.420,1.180,109.51,1.44e+02,2,,2.57e+02,,,
"1/0362728177.39672",2014-10-30T05:49:41.427,13745,873.00,81.87,81.78,"13:42:15",99.97,-0.410,1.180,109.29,1.44e+02,2,,2.57e+02,,,
"1/0362728185.09722",2014-10-30T05:49:48.970,13745,864.00,82.22,82.13,"17:36:08",98.95,-0.410,1.180,109.07,1.48e+02,2,,2.72e+02,,,
"1/0362728192.45308",2014-10-30T05:49:56.513,13745,856.00,82.57,82.48,"21:55:14",97.82,-0.400,1.180,108.84,1.49e+02,2,,2.75e+02,,,
"1/0362728200.15358",2014-10-30T05:50:04.056,13745,847.00,82.91,82.83,"02:39:33",96.58,-0.400,1.180,108.62,1.53e+02,2,,2.90e+02,,,
"1/0362728207.51010",2014-10-30T05:50:11.600,13745,839.00,83.25,83.18,"07:55:57",95.20,-0.390,1.180,108.39,1.50e+02,2,,2.79e+02,,,
"1/0362728215.21060",2014-10-30T05:50:19.143,13745,831.00,83.59,83.52,"13:49:01",93.66,-0.390,1.180,108.16,1.49e+02,2,,2.75e+02,,,
"1/0362728222.56646",2014-10-30T05:50:26.686,13745,823.00,83.93,83.86,"20:21:02",91.95,-0.380,1.180,107.93,1.40e+02,2,,2.43e+02,,,
"1/0362728230.26696",2014-10-30T05:50:34.229,13745,815.00,84.26,84.19,"03:43:29",90.02,-0.380,1.170,107.70,1.33e+02,2,,2.19e+02,,,
"1/0362728237.62282",2014-10-30T05:50:41.772,13745,807.00,84.58,84.52,"12:00:56",87.85,-0.370,1.170,107.46,1.25e+02,2,,1.94e+02,,,
"1/0362728245.32397",2014-10-30T05:50:49.316,13745,799.00,84.90,84.84,"21:22:33",85.40,-0.360,1.170,107.23,1.21e+02,2,,1.82e+02,,,
"1/0362728253.02447",2014-10-30T05:50:56.859,13745,791.00,85.21,85.15,"08:02:06",82.61,-0.360,1.170,106.99,1.25e+02,2,,1.94e+02,,,
"1/0362728260.38033",2014-10-30T05:51:04.402,13745,783.00,85.50,85.45,"20:11:01",79.43,-0.350,1.170,106.76,1.14e+02,2,,1.61e+02,,,
"1/0362728268.08083",2014-10-30T05:51:11.945,13745,775.00,85.78,85.73,"10:00:47",75.81,-0.350,1.170,106.52,1.14e+02,2,,1.61e+02,,,
"1/0362728275.43669",2014-10-30T05:51:19.488,13745,767.00,86.04,86.00,"01:52:01",71.66,-0.340,1.170,106.28,1.14e+02,2,,1.61e+02,,,
"1/0362728283.13785",2014-10-30T05:51:27.032,13745,760.00,86.28,86.24,"19:53:53",66.94,-0.340,1.170,106.03,1.11e+02,2,,1.53e+02,,,
"1/0362728290.49371",2014-10-30T05:51:34.575,13745,752.00,86.49,86.45,"16:20:08",61.59,-0.330,1.170,105.79,1.22e+02,2,,1.85e+02,,,
"1/0362728298.19421",2014-10-30T05:51:42.118,13745,744.00,86.67,86.63,"15:15:21",55.59,-0.320,1.170,105.55,1.34e+02,2,,2.23e+02,,,
"1/0362728305.55007",2014-10-30T05:51:49.661,13745,737.00,86.81,86.77,"16:30:23",48.98,-0.320,1.170,105.30,1.32e+02,2,,2.16e+02,,,
"1/0362728313.25057",2014-10-30T05:51:57.204,13745,729.00,86.90,86.86,"19:44:35",41.85,-0.310,1.170,105.05,1.17e+02,2,,1.70e+02,,,
"1/0362728320.60709",2014-10-30T05:52:04.748,13745,722.00,86.94,86.90,"00:14:24",34.39,-0.310,1.170,104.80,1.24e+02,2,,1.91e+02,,,
"1/0362728328.30759",2014-10-30T05:52:12.291,13745,715.00,86.92,86.88,"05:04:52",26.84,-0.300,1.170,104.55,1.24e+02,2,,1.91e+02,,,
"1/0362728336.00809",2014-10-30T05:52:19.834,13745,707.00,86.85,86.82,"09:14:04",19.47,-0.300,1.160,104.30,1.36e+02,2,,2.29e+02,,,
"1/0362728343.36395",2014-10-30T05:52:27.377,13745,700.00,86.74,86.70,"11:56:10",12.48,-0.290,1.160,104.05,1.34e+02,2,,2.23e+02,,,
"1/0362728351.06445",2014-10-30T05:52:34.920,13745,693.00,86.57,86.53,"12:29:57",6.05,-0.280,1.160,103.80,1.49e+02,2,,2.75e+02,,,
"1/0362728358.42096",2014-10-30T05:52:42.464,13745,686.00,86.37,86.33,"10:37:02",0.26,-0.280,1.160,103.54,1.50e+02,2,,2.79e+02,,,
"1/0362728366.12146",2014-10-30T05:52:50.007,13745,679.00,86.13,86.09,"23:11:32",355.11,-0.270,1.160,103.28,1.57e+02,2,,3.06e+02,,,
"1/0362728373.47732",2014-10-30T05:52:57.550,13745,672.00,85.87,85.82,"16:32:09",350.57,-0.270,1.160,103.03,1.56e+02,2,,3.02e+02,,,
"1/0362728381.17782",2014-10-30T05:53:05.093,13745,665.00,85.58,85.53,"07:42:07",346.60,-0.260,1.160,102.77,1.58e+02,2,,3.10e+02,,,
"1/0362728388.53368",2014-10-30T05:53:12.636,13745,658.00,85.27,85.21,"20:59:48",343.12,-0.260,1.160,102.51,1.76e+02,2,,3.84e+02,,,
"1/0362728396.23484",2014-10-30T05:53:20.180,13745,652.00,84.94,84.88,"08:38:56",340.07,-0.250,1.160,102.24,1.82e+02,2,,4.11e+02,,,
"1/0362728403.59070",2014-10-30T05:53:27.723,13745,645.00,84.60,84.54,"18:53:16",337.39,-0.240,1.160,101.98,1.85e+02,2,,4.24e+02,,,
"1/0362728411.29120",2014-10-30T05:53:35.266,13745,638.00,84.25,84.18,"03:54:16",335.03,-0.240,1.160,101.72,1.74e+02,2,,3.75e+02,,,
"1/0362728418.64706",2014-10-30T05:53:42.809,13745,632.00,83.89,83.82,"11:53:23",332.94,-0.230,1.160,101.45,1.69e+02,2,,3.54e+02,,,
"1/0362728426.34756",2014-10-30T05:53:50.352,13745,625.00,83.52,83.44,"18:57:29",331.09,-0.230,1.160,101.18,1.84e+02,2,,4.20e+02,,,
"1/0362728434.04872",2014-10-30T05:53:57.896,13745,619.00,83.14,83.06,"01:18:03",329.43,-0.220,1.150,100.91,2.10e+02,2,,5.47e+02,,,
"1/0362728441.40458",2014-10-30T05:54:05.439,13745,613.00,82.76,82.67,"06:57:22",327.95,-0.220,1.150,100.64,2.21e+02,2,,6.06e+02,,,
"1/0362728449.10508",2014-10-30T05:54:12.982,13745,606.00,82.37,82.28,"12:04:36",326.61,-0.210,1.150,100.37,2.30e+02,2,,6.56e+02,,,
"1/0362728456.46094",2014-10-30T05:54:20.525,13745,600.00,81.97,81.88,"16:42:02",325.40,-0.200,1.150,100.10,2.42e+02,2,,7.26e+02,,,
"1/0362728464.16144",2014-10-30T05:54:28.068,13745,594.00,81.57,81.47,"20:51:58",324.31,-0.200,1.150,99.83,2.48e+02,2,,7.63e+02,,,
"1/0362728471.51795",2014-10-30T05:54:35.612,13745,588.00,81.17,81.07,"00:41:16",323.31,-0.190,1.150,99.55,2.56e+02,2,,8.13e+02,,,
"1/0362728479.21845",2014-10-30T05:54:43.155,13745,582.00,80.76,80.65,"04:09:57",322.40,-0.190,1.150,99.28,2.62e+02,2,,8.51e+02,,,
"1/0362728486.57431",2014-10-30T05:54:50.698,13745,576.00,80.35,80.24,"07:20:17",321.57,-0.180,1.150,99.00,2.77e+02,2,,9.51e+02,,,
"1/0362728494.27481",2014-10-30T05:54:58.241,13745,570.00,79.93,79.82,"10:14:35",320.81,-0.170,1.150,98.73,2.85e+02,2,,1.01e+03,,,
"1/0362728501.63067",2014-10-30T05:55:05.784,13745,565.00,79.52,79.40,"12:57:26",320.10,-0.170,1.150,98.45,2.93e+02,2,,1.06e+03,,,
"1/0362728509.33183",2014-10-30T05:55:13.328,13745,559.00,79.10,78.97,"15:26:31",319.45,-0.160,1.150,98.17,3.00e+02,2,,1.12e+03,,,
"1/0362728517.03233",2014-10-30T05:55:20.871,13745,553.00,78.67,78.54,"17:44:09",318.85,-0.160,1.150,97.89,3.07e+02,2,,1.17e+03,,,
"1/0362728524.38819",2014-10-30T05:55:28.414,13745,548.00,78.25,78.11,"19:52:37",318.29,-0.150,1.140,97.60,3.01e+02,2,,1.12e+03,,,
"1/0362728532.08869",2014-10-30T05:55:35.957,13745,542.00,77.82,77.68,"21:51:55",317.77,-0.140,1.140,97.32,2.70e+02,2,,9.04e+02,,,
"1/0362728539.44521",2014-10-30T05:55:43.501,13745,537.00,77.39,77.25,"23:42:03",317.29,-0.140,1.140,97.04,2.82e+02,2,,9.86e+02,,,
"1/0362728547.14571",2014-10-30T05:55:51.044,13745,532.00,76.96,76.81,"01:27:36",316.83,-0.130,1.140,96.75,2.67e+02,2,,8.84e+02,,,
"1/0362728554.50157",2014-10-30T05:55:58.587,13745,527.00,76.52,76.37,"03:03:58",316.41,-0.130,1.140,96.46,2.60e+02,2,,8.38e+02,,,
"1/0362728562.20207",2014-10-30T05:56:06.130,13745,522.00,76.09,75.93,"04:33:29",316.02,-0.120,1.140,96.18,2.93e+02,2,,1.06e+03,,,
"1/0362728569.55793",2014-10-30T05:56:13.673,13745,517.00,75.65,75.49,"06:00:41",315.64,-0.110,1.140,95.89,3.15e+02,2,,1.23e+03,,,
"1/0362728577.25908",2014-10-30T05:56:21.217,13745,512.00,75.21,75.04,"07:18:44",315.30,-0.110,1.140,95.60,3.20e+02,2,,1.27e+03,,,
"1/0362728584.61494",2014-10-30T05:56:28.760,13745,507.00,74.77,74.60,"08:34:29",314.97,-0.100,1.140,95.31,3.31e+02,2,,1.36e+03,,,
"1/0362728592.31544",2014-10-30T05:56:36.303,13745,502.00,74.33,74.15,"09:45:39",314.66,-0.100,1.140,95.02,3.47e+02,2,,1.49e+03,,,
"1/0362728600.01594",2014-10-30T05:56:43.846,13745,497.00,73.88,73.70,"10:54:32",314.36,-0.090,1.140,94.73,3.51e+02,2,,1.53e+03,,,
"1/0362728607.37180",2014-10-30T05:56:51.389,13745,493.00,73.44,73.25,"11:56:32",314.09,-0.090,1.140,94.43,3.57e+02,2,,1.58e+03,,,
"1/0362728615.07296",2014-10-30T05:56:58.933,13745,488.00,72.99,72.80,"12:56:15",313.83,-0.080,1.130,94.14,3.69e+02,2,,1.69e+03,,,
"1/0362728622.42882",2014-10-30T05:57:06.476,13745,484.00,72.54,72.35,"13:53:40",313.58,-0.070,1.130,93.84,3.66e+02,2,,1.66e+03,,,
"1/0362728630.12932",2014-10-30T05:57:14.019,13745,479.00,72.09,71.89,"14:46:30",313.35,-0.070,1.130,93.55,3.64e+02,2,,1.64e+03,,,
"1/0362728637.48518",2014-10-30T05:57:21.562,13745,475.00,71.64,71.43,"15:39:20",313.12,-0.060,1.130,93.25,3.65e+02,2,,1.65e+03,,,
"1/0362728645.18568",2014-10-30T05:57:29.105,13745,471.00,71.19,70.98,"16:27:35",312.91,-0.060,1.130,92.96,3.80e+02,2,,1.79e+03,,,
"1/0362728652.54220",2014-10-30T05:57:36.649,13745,467.00,70.73,70.52,"17:13:33",312.71,-0.050,1.130,92.66,3.90e+02,2,,1.89e+03,,,
"1/0362728660.24270",2014-10-30T05:57:44.192,13745,463.00,70.28,70.06,"17:57:13",312.52,-0.040,1.130,92.36,3.90e+02,2,,1.89e+03,,,
"1/0362728667.59856",2014-10-30T05:57:51.735,13745,459.00,69.82,69.60,"18:38:35",312.34,-0.040,1.130,92.06,3.96e+02,2,,1.94e+03,,,
"1/0362728675.29906",2014-10-30T05:57:59.278,13745,455.00,69.36,69.13,"19:17:40",312.17,-0.030,1.130,91.76,3.89e+02,2,,1.88e+03,,,
"1/0362728682.65492",2014-10-30T05:58:06.821,13745,451.00,68.90,68.67,"19:56:45",312.00,-0.030,1.130,91.46,3.94e+02,2,,1.93e+03,,,
"1/0362728690.35607",2014-10-30T05:58:14.365,13745,447.00,68.44,68.21,"20:33:33",311.84,-0.020,1.130,91.16,3.89e+02,2,,1.88e+03,,,
"1/0362728698.05657",2014-10-30T05:58:21.908,13745,444.00,67.98,67.74,"21:08:03",311.69,-0.010,1.120,90.86,3.86e+02,2,,1.85e+03,,,
"1/0362728705.41243",2014-10-30T05:58:29.451,13745,440.00,67.52,67.27,"21:40:15",311.55,-0.010,1.120,90.55,3.74e+02,2,,1.73e+03,,,
"1/0362728713.11293",2014-10-30T05:58:36.994,13745,437.00,67.05,66.81,"22:12:28",311.41,-0.000,1.120,90.25,3.57e+02,2,,1.58e+03,,,
"1/0362728720.46879",2014-10-30T05:58:44.537,13745,434.00,66.59,66.34,"22:42:22",311.28,0.000,1.120,89.95,3.76e+02,2,,1.75e+03,,,
"1/0362728728.16995",2014-10-30T05:58:52.081,13745,430.00,66.12,65.87,"23:10:00",311.16,0.010,1.120,89.64,3.76e+02,2,,1.75e+03,,,
"1/0362728735.52581",2014-10-30T05:58:59.624,13745,427.00,65.66,65.40,"23:37:37",311.04,0.020,1.120,89.34,3.74e+02,2,,1.73e+03,2.85e+00,1,1.25e+01
"1/0362728743.22631",2014-10-30T05:59:07.167,13745,424.00,65.19,64.92,"00:05:15",310.92,0.020,1.120,89.03,3.79e+02,2,,1.78e+03,,,
"1/0362728750.58217",2014-10-30T05:59:14.710,13745,421.00,64.72,64.45,"00:30:35",310.81,0.030,1.120,88.73,4.01e+02,2,,1.99e+03,,,
"1/0362728758.28267",2014-10-30T05:59:22.253,13745,419.00,64.25,63.98,"00:53:37",310.71,0.030,1.120,88.42,4.07e+02,2,,2.05e+03,,,
"1/0362728765.63919",2014-10-30T05:59:29.797,13745,416.00,63.78,63.51,"01:16:40",310.61,0.040,1.120,88.11,4.34e+02,2,,2.34e+03,,,
"1/0362728773.33969",2014-10-30T05:59:37.340,13745,413.00,63.31,63.03,"01:39:42",310.51,0.050,1.120,87.81,4.49e+02,2,,2.50e+03,,,
"1/0362728781.04019",2014-10-30T05:59:44.883,13745,410.00,62.84,62.56,"02:00:27",310.42,0.050,1.110,87.50,4.50e+02,2,,2.51e+03,,,
"1/0362728788.39605",2014-10-30T05:59:52.426,13745,408.00,62.37,62.08,"02:21:12",310.33,0.060,1.110,87.19,4.44e+02,2,,2.44e+03,,,
"1/0362728796.09655",2014-10-30T05:59:59.969,13745,406.00,61.89,61.60,"02:41:57",310.24,0.060,1.110,86.88,4.60e+02,2,,2.62e+03,,,
"1/0362728803.45306",2014-10-30T06:00:07.513,13745,403.00,61.42,61.13,"03:00:24",310.16,0.070,1.110,86.57,4.51e+02,2,,2.52e+03,,,
"1/0362728811.15356",2014-10-30T06:00:15.056,13745,401.00,60.94,60.65,"03:18:52",310.08,0.080,1.110,86.27,4.56e+02,2,,2.58e+03,,,
"1/0362728818.50942",2014-10-30T06:00:22.599,13745,399.00,60.47,60.17,"03:37:19",310.00,0.080,1.110,85.96,4.67e+02,2,,2.70e+03,,,
"1/0362728826.20992",2014-10-30T06:00:30.142,13745,397.00,59.99,59.69,"03:53:29",309.93,0.090,1.110,85.65,4.75e+02,2,,2.80e+03,,,
"1/0362728833.56578",2014-10-30T06:00:37.685,13745,395.00,59.51,59.21,"04:09:39",309.86,0.090,1.110,85.34,4.99e+02,2,,3.09e+03,,,
"1/0362728841.26694",2014-10-30T06:00:45.229,13745,393.00,59.04,58.73,"04:25:49",309.79,0.100,1.110,85.03,5.22e+02,2,,3.38e+03,,,
"1/0362728848.62280",2014-10-30T06:00:52.772,13745,392.00,58.56,58.25,"04:39:41",309.73,0.110,1.110,84.72,5.36e+02,2,,3.56e+03,,,
"1/0362728856.32330",2014-10-30T06:01:00.315,13745,390.00,58.08,57.77,"04:55:51",309.66,0.110,1.100,84.41,5.25e+02,2,,3.42e+03,,,
"1/0362728864.02380",2014-10-30T06:01:07.858,13745,388.00,57.60,57.29,"05:09:44",309.60,0.120,1.100,84.10,5.41e+02,2,,3.63e+03,,,
"1/0362728871.37966",2014-10-30T06:01:15.401,13745,387.00,57.12,56.80,"05:21:18",309.55,0.120,1.100,83.79,5.41e+02,2,,3.63e+03,,,
"1/0362728879.08082",2014-10-30T06:01:22.945,13745,386.00,56.64,56.32,"05:35:11",309.49,0.130,1.100,83.48,5.30e+02,2,,3.48e+03,,,
"1/0362728886.43668",2014-10-30T06:01:30.488,13745,384.00,56.16,55.84,"05:46:46",309.44,0.140,1.100,83.17,5.29e+02,2,,3.47e+03,,,
"1/0362728894.13718",2014-10-30T06:01:38.031,13745,383.00,55.68,55.36,"05:58:21",309.39,0.140,1.100,82.86,5.37e+02,2,,3.58e+03,,,
"1/0362728901.49304",2014-10-30T06:01:45.574,13745,382.00,55.20,54.87,"06:09:56",309.34,0.150,1.100,82.55,5.39e+02,2,,3.60e+03,,,
"1/0362728909.19354",2014-10-30T06:01:53.117,13745,381.00,54.72,54.39,"06:21:30",309.29,0.150,1.100,82.24,5.51e+02,2,,3.76e+03,,,
"1/0362728916.55005",2014-10-30T06:02:00.661,13745,380.00,54.24,53.90,"06:33:05",309.24,0.160,1.100,81.93,5.57e+02,2,,3.85e+03,,,
"1/0362728924.25055",2014-10-30T06:02:08.204,13745,380.00,53.75,53.42,"06:42:23",309.20,0.170,1.090,81.62,5.62e+02,2,,3.92e+03,,,
"1/0362728931.60641",2014-10-30T06:02:15.747,13745,379.00,53.27,52.94,"06:51:40",309.16,0.170,1.090,81.32,5.37e+02,2,,3.58e+03,,,
"1/0362728939.30691",2014-10-30T06:02:23.290,13745,378.00,52.79,52.45,"07:00:57",309.12,0.180,1.090,81.01,5.28e+02,2,,3.46e+03,,,
"1/0362728947.00741",2014-10-30T06:02:30.833,13745,378.00,52.31,51.97,"07:10:15",309.08,0.180,1.090,80.70,4.91e+02,2,,2.99e+03,,,
"1/0362728954.36393",2014-10-30T06:02:38.377,13745,378.00,51.82,51.48,"07:19:32",309.04,0.190,1.090,80.39,5.25e+02,2,,3.42e+03,,,
"1/0362728962.06443",2014-10-30T06:02:45.920,13745,377.00,51.34,51.00,"07:28:50",309.00,0.200,1.090,80.08,5.25e+02,2,,3.42e+03,,,
"1/0362728969.42029",2014-10-30T06:02:53.463,13745,377.00,50.86,50.51,"07:35:49",308.97,0.200,1.090,79.78,5.16e+02,2,,3.30e+03,,,